This is the latest recevied weather packets stored in our database for station/object DL7HMX-13. If no packets are shown the sender has not sent any weather packets the latest 10 day(s).
| Time | Temp. | Humidity | Pressure | Rain* | Wind** | Luminosity | Snow |
|---|---|---|---|---|---|---|---|
| 1777735822 | 25.56° C | 21% | 1018.8 hPa | 0 mm | - | 301 W/m² | - |
| 1777735226 | 25.56° C | 23% | 1018.9 hPa | 0 mm | - | 327 W/m² | - |
| 1777734628 | 25.56° C | 22% | 1019 hPa | 0 mm | - | 353 W/m² | - |
| 1777734030 | 25.56° C | 22% | 1019.1 hPa | 0 mm | - | 378 W/m² | - |
| 1777733419 | 25.56° C | 22% | 1019.3 hPa | 0 mm | - | 407 W/m² | - |
| 1777732820 | 25.56° C | 23% | 1019.4 hPa | 0 mm | - | 435 W/m² | - |
| 1777732219 | 25.56° C | 24% | 1019.4 hPa | 0 mm | - | 464 W/m² | - |
| 1777731625 | 26.11° C | 24% | 1019.6 hPa | 0 mm | - | 492 W/m² | - |
| 1777731028 | 26.11° C | 23% | 1019.7 hPa | 0 mm | - | 517 W/m² | - |
| 1777730431 | 26.11° C | 24% | 1019.7 hPa | 0 mm | - | 539 W/m² | - |
| 1777729819 | 26.67° C | 23% | 1019.9 hPa | 0 mm | - | 559 W/m² | - |
| 1777729221 | 25.56° C | 24% | 1020.1 hPa | 0 mm | - | 576 W/m² | - |
| 1777728624 | 25° C | 25% | 1020.2 hPa | 0 mm | - | 590 W/m² | - |
| 1777728026 | 26.11° C | 24% | 1020.4 hPa | 0 mm | - | 603 W/m² | - |
| 1777727429 | 25° C | 25% | 1020.6 hPa | 0 mm | - | 615 W/m² | - |
| 1777726818 | 26.11° C | 24% | 1020.7 hPa | 0 mm | - | 626 W/m² | - |
| 1777726219 | 26.67° C | 23% | 1020.9 hPa | 0 mm | - | 638 W/m² | - |
| 1777725622 | 25.56° C | 23% | 1020.9 hPa | 0 mm | - | 645 W/m² | - |
| 1777725025 | 25° C | 23% | 1021 hPa | 0 mm | - | 652 W/m² | - |
| 1777724427 | 25° C | 25% | 1021.1 hPa | 0 mm | - | 653 W/m² | - |
| 1777723829 | 24.44° C | 25% | 1021.2 hPa | 0 mm | - | 654 W/m² | - |
| 1777723232 | 24.44° C | 26% | 1021.3 hPa | 0 mm | - | 656 W/m² | - |
| 1777722618 | 24.44° C | 27% | 1021.4 hPa | 0 mm | - | 657 W/m² | - |
| 1777722020 | 23.89° C | 26% | 1021.6 hPa | 0 mm | - | 660 W/m² | - |
| 1777721422 | 23.89° C | 27% | 1021.7 hPa | 0 mm | - | 658 W/m² | - |
* Rain latest hour (hover to see other rain measurements)
** Current wind speed in m/s (hover to see current wind gust speed)